Toms River, NJ

11:12 PM EDT on October 15, 2019 (GMT -0400)
Miller

Weather History for KMJX - August, 2019

Change the Weather History Date:

Thursday, August 8, 2019

  Actual Average Record
Temperature  
Mean Temperature 80 °F -  
Max Temperature 89 °F 84 °F 96 °F (2018)
Min Temperature 69 °F 63 °F 46 °F (1989)
Cooling Degree Days 15    
Growing Degree Days 30 (Base 50)    
Moisture  
Dew Point 72 °F    
Average Humidity 70    
Maximum Humidity 100    
Minimum Humidity 51    
Precipitation  
Precipitation 0.00 in - - ()
Sea Level Pressure  
Sea Level Pressure 29.77 in    
Wind  
Wind Speed 3 mph (SW)    
Max Wind Speed 14 mph    
Max Gust Speed 21 mph    
Visibility 6 miles    
Events Fog , Rain , Thunderstorm    
Averages and records for this station are not official NWS values.
T = Trace of Precipitation, MM = Missing Value Source: NWS Daily Summary

Daily Weather History Graph

Daily Weather History Graph

Search for Another Location

Airport or City:

Astronomy

Aug. 08, 2019 Rise Set
Actual Time 6:02 AM EDT 8:02 PM EDT
Civil Twilight 5:32 AM EDT 8:32 PM EDT
Nautical Twilight 4:56 AM EDT 9:08 PM EDT
Astronomical Twilight 4:16 AM EDT 9:47 PM EDT
Moon 2:36 PM EDT (8/8) 12:22 AM EDT (8/8)
Length of Visible Light 15h 00m
Length of Day
14h 00m
First Quarter, 60% of the Moon is Illuminated
Aug 8
First Quarter
Aug 15
Full
Aug 23
Last Quarter
Aug 30
New
Sep 5
First Quarter

Hourly Weather History & Observations

Time (EDT) Temp. Heat Index Dew Point Humidity Pressure Visibility Wind Dir Wind Speed Gust Speed Precip Events Conditions
12:56 AM - - - N/A% 29.80 in 8.0 mi West 4.6 mph - N/A   Clear
1:56 AM - - - N/A% 29.79 in 8.0 mi Calm Calm - N/A   Clear
2:15 AM - - - N/A% 29.79 in 8.0 mi Calm Calm - N/A   Scattered Clouds
2:24 AM - - - N/A% 29.78 in 7.0 mi Calm Calm - N/A   Mostly Cloudy
2:40 AM - - - N/A% 29.78 in 1.8 mi Calm Calm - N/A   Overcast
2:45 AM - - - N/A% 29.79 in 0.8 mi West 3.5 mph - N/A   Overcast
2:56 AM - - - N/A% 29.79 in 0.8 mi West 4.6 mph - N/A   Overcast
3:06 AM - - - N/A% 29.78 in 1.0 mi Variable 3.5 mph - N/A   Overcast
3:29 AM - - - N/A% 29.78 in 2.0 mi Calm Calm - N/A   Overcast
3:38 AM - - - N/A% 29.77 in 4.0 mi Calm Calm - N/A   Haze
3:56 AM - - - N/A% 29.77 in 2.5 mi Calm Calm - N/A   Mostly Cloudy
4:03 AM - - - N/A% 29.77 in 5.0 mi Calm Calm - N/A   Haze
4:12 AM - - - N/A% - 8.0 mi Calm Calm - N/A   Scattered Clouds
4:36 AM - - - N/A% 29.77 in 1.5 mi Calm Calm - N/A   Partly Cloudy
4:41 AM - - - N/A% 29.76 in 0.8 mi Calm Calm - N/A   Mist
4:56 AM - - - N/A% 29.76 in 0.5 mi SSE 4.6 mph - N/A Fog Fog
5:05 AM - - - N/A% 29.77 in 0.2 mi SSE 5.8 mph - N/A Fog Fog
5:22 AM - - - N/A% 29.77 in 0.5 mi South 5.8 mph - N/A Fog Fog
5:27 AM - - - N/A% 29.77 in 1.0 mi South 5.8 mph - N/A   Overcast
5:33 AM - - - N/A% 29.77 in 1.2 mi South 4.6 mph - N/A   Overcast
5:40 AM - - - N/A% 29.77 in 2.0 mi South 4.6 mph - N/A   Overcast
5:56 AM - - - N/A% - 7.0 mi South 3.5 mph - N/A   Overcast
6:49 AM - - - N/A% - 2.5 mi Calm Calm - N/A   Overcast
6:56 AM - - - N/A% 29.78 in 1.8 mi Calm Calm - N/A   Overcast
7:04 AM - - - N/A% - 3.0 mi Calm Calm - N/A   Overcast
7:56 AM - - - N/A% 29.79 in 3.0 mi Calm Calm - N/A   Overcast
8:43 AM - - - N/A% 29.79 in 5.0 mi SW 5.8 mph - N/A   Haze
8:56 AM - - - N/A% - 5.0 mi West 5.8 mph - N/A   Haze
9:43 AM 71.6 °F - - N/A% 29.79 in 7.0 mi SSW 5.8 mph - N/A   Overcast
9:56 AM 72.0 °F - - N/A% 29.79 in 8.0 mi WSW 6.9 mph - N/A   Overcast
10:56 AM 75.0 °F - - N/A% 29.79 in 10.0 mi SSW 5.8 mph - N/A   Overcast
11:22 AM 75.2 °F - - N/A% 29.78 in 10.0 mi SSW 6.9 mph - N/A   Overcast
11:56 AM 78.1 °F - 78.1 °F 100% 29.79 in 10.0 mi SW 8.1 mph - N/A   Overcast
12:42 PM 80.6 °F 85.4 °F 73.4 °F 79% 29.77 in 10.0 mi SW 5.8 mph - N/A   Scattered Clouds
12:56 PM 82.9 °F 88.8 °F 73.0 °F 72% 29.76 in 10.0 mi SW 10.4 mph - N/A   Clear
1:56 PM 86.0 °F 93.0 °F 73.0 °F 65% 29.74 in 10.0 mi SSW 9.2 mph - N/A   Scattered Clouds
2:56 PM 87.1 °F 92.0 °F 70.0 °F 57% 29.73 in 10.0 mi WSW 11.5 mph - N/A   Partly Cloudy
3:56 PM 89.1 °F 93.7 °F 69.1 °F 52% 29.71 in 10.0 mi West 12.7 mph 20.7 mph N/A   Clear
4:56 PM 88.0 °F 91.4 °F 68.0 °F 51% 29.71 in 10.0 mi West 11.5 mph - N/A   Clear
5:48 PM 84.2 °F 88.4 °F 69.8 °F 62% 29.72 in 10.0 mi WSW 5.8 mph - N/A Thunderstorm Scattered Clouds
5:56 PM 84.0 °F 89.0 °F 71.1 °F 65% 29.73 in 9.0 mi West 13.8 mph 19.6 mph 0.00 in Rain , Thunderstorm Light Rain
6:14 PM 73.4 °F - 73.4 °F 100% 29.73 in 10.0 mi NW 4.6 mph - N/A Rain Light Rain
6:56 PM 78.1 °F - - N/A% 29.73 in 10.0 mi West 4.6 mph - N/A   Partly Cloudy
7:56 PM 75.9 °F - - N/A% 29.74 in 10.0 mi SSW 3.5 mph - N/A   Clear
8:56 PM 73.9 °F - - N/A% 29.75 in 10.0 mi Calm Calm - N/A   Clear
9:56 PM 73.0 °F - - N/A% 29.77 in 9.0 mi South 3.5 mph - N/A   Scattered Clouds
10:56 PM 71.1 °F - - N/A% 29.75 in 10.0 mi SSW 3.5 mph - N/A   Clear
11:56 PM 69.1 °F - - N/A% 29.74 in 10.0 mi SW 3.5 mph - N/A   Clear